Live-Position
3D-Globus wird geladen...
Über OneWeb SL0271
Group: 3 satellites
Beschreibung wird geladen...
Nächste Überflüge
Passes for default location (London). Set your location on the main map for personalized predictions.
Höhenverlauf
Loading altitude history...
No altitude history available
Zweizeiliger Elementsatz
1 48989U 21060Y 26119.83679125 .00000045 00000-0 83774-4 0 9999
2 48989 87.9084 238.3751 0001951 93.3904 266.7451 13.16594676233309
Epoch: 29. Apr. 2026 •
Age: 10 hours
Aktueller Status
Höhe 1218.4 km
Geschwindigkeit 7.24 km/s
Subsatellitenpunkt -50.30°S,
107.07°E
Startdatum 1. Juli 2021
Alter 4.8 years
Typ internet
Startgruppe
Unknown Vehicle •
OneWeb Launch 8 •
34 satellites
OneWeb SL0249
48967
OneWeb SL0250 48968
OneWeb SL0252 48970
OneWeb SL0253 48971
OneWeb SL0254 48972
OneWeb SL0255 48973
OneWeb SL0256 48974
OneWeb SL0257 48975
OneWeb SL0258 48976
OneWeb SL0259 48977
OneWeb SL0260 48978
OneWeb SL0261 48979
OneWeb SL0262 48980
OneWeb SL0263 48981
OneWeb SL0264 48982
OneWeb SL0266 48984
OneWeb SL0267 48985
OneWeb SL0268 48986
OneWeb SL0269 48987
OneWeb SL0270 48988
...and 13 more
Technische Details
Klassifizierung Payload
Masse 148.00 kg
Trockenmasse 140.00 kg
Gesamtmasse 148.00 kg
Länge 1.30 m
Durchmesser 1.00 m
Spannweite 5.00 m
Form Trapezoid+2 pan
Hersteller ONEWUS
Bus-Typ ARROW
Phasenstatus In Orbit
Besitzer/Staat ONEWEBN/UK
Most Searched
Loading...